{"data":{"norad_id":65600,"epoch":"2026-05-25T03:43:39.978048Z","epoch_age_seconds":55437,"freshness":"FRESH","line1":"1 65600U 25207J   26145.15532382  .00003676  00000+0  25864-3 0  9999","line2":"2 65600  97.4466 213.6101 0001538 159.8742 200.2546 15.05658350 39764","mean_motion":15.0565835,"eccentricity":0.0001538,"inclination_deg":97.4466,"raan_deg":213.6101,"arg_perigee_deg":159.8742,"mean_anomaly_deg":200.2546,"bstar":0.00025864,"rev_number":3976,"period_min":95.63922652174,"perigee_km":548.42007301345,"apogee_km":550.55100970717,"semimajor_km":6927.6225413603,"source":"CELESTRAK","updated_at":"2026-05-25T13:38:20.853494Z"}}